• In Uzbekistan
  • List of Countries
  • For 7 days
  • Water Temperature
  • Weather Map
  • Weather Widgets
  • user-avatar
    Login

    Hourly Weather Genichesk

    Today, 18 November, Monday

    Time Temperature Precipitation Wind Pressure Humidity
    00:00 +7°C° 0 mm 4 mps 768 mmHg 89%
    01:00 +7°C° 0 mm 4 mps 767 mmHg 89%
    02:00 +7°C° 0 mm 4 mps 767 mmHg 89%
    03:00 +7°C° 0 mm 4 mps 767 mmHg 89%
    04:00 +7°C° 0 mm 4 mps 767 mmHg 89%
    05:00 +7°C° 0 mm 4 mps 767 mmHg 89%
    06:00 +7°C° 0 mm 4 mps 767 mmHg 89%
    07:00 +7°C° 0 mm 4 mps 767 mmHg 89%
    08:00 +8°C° 0 mm 4 mps 768 mmHg 87%
    09:00 +10°C° 0 mm 4 mps 768 mmHg 82%
    10:00 +10°C° 0 mm 4 mps 768 mmHg 77%
    11:00 +11°C° 0 mm 4 mps 768 mmHg 72%
    12:00 +11°C° 0 mm 4 mps 767 mmHg 72%
    13:00 +11°C° 0 mm 4 mps 767 mmHg 71%
    14:00 +11°C° 0 mm 4 mps 767 mmHg 73%
    15:00 +10°C° 0 mm 4 mps 767 mmHg 78%
    16:00 +8°C° 0 mm 4 mps 767 mmHg 82%
    17:00 +7°C° 0 mm 4 mps 768 mmHg 86%
    18:00 +8°C° 0 mm 3 mps 768 mmHg 87%
    19:00 +7°C° 0 mm 3 mps 768 mmHg 88%
    20:00 +7°C° 0 mm 3 mps 768 mmHg 88%
    21:00 +7°C° 0 mm 3 mps 768 mmHg 89%
    22:00 +6°C° 0 mm 2 mps 768 mmHg 89%
    23:00 +6°C° 0 mm 2 mps 768 mmHg 89%

    Tomorrow, 19 November, Tuesday

    Time Temperature Precipitation Wind Pressure Humidity
    00:00 +6°C° 0 mm 2 mps 768 mmHg 89%
    01:00 +6°C° 0 mm 2 mps 768 mmHg 89%
    02:00 +5°C° 0 mm 2 mps 769 mmHg 89%
    03:00 +4°C° 0 mm 3 mps 769 mmHg 89%
    04:00 +4°C° 0 mm 3 mps 769 mmHg 88%
    05:00 +4°C° 0 mm 3 mps 769 mmHg 88%
    06:00 +4°C° 0 mm 3 mps 769 mmHg 87%
    07:00 +4°C° 0 mm 3 mps 769 mmHg 86%
    08:00 +4°C° 0 mm 3 mps 769 mmHg 84%
    09:00 +7°C° 0 mm 3 mps 769 mmHg 77%
    10:00 +8°C° 0 mm 3 mps 769 mmHg 71%
    11:00 +9°C° 0 mm 2 mps 769 mmHg 64%
    12:00 +10°C° 0 mm 2 mps 769 mmHg 60%
    13:00 +10°C° 0 mm 2 mps 769 mmHg 57%
    14:00 +12°C° 0 mm 1 mps 769 mmHg 54%
    15:00 +11°C° 0 mm 1 mps 769 mmHg 57%
    16:00 +10°C° 0 mm 1 mps 769 mmHg 60%
    17:00 +10°C° 0 mm 1 mps 769 mmHg 64%
    18:00 +9°C° 0 mm 1 mps 769 mmHg 66%
    19:00 +8°C° 0 mm 2 mps 769 mmHg 69%
    20:00 +7°C° 0 mm 2 mps 769 mmHg 72%
    21:00 +7°C° 0 mm 2 mps 769 mmHg 74%
    22:00 +6°C° 0 mm 2 mps 769 mmHg 76%
    23:00 +6°C° 0 mm 2 mps 768 mmHg 78%

    Day after tomorrow, 20 November, Wednesday

    Time Temperature Precipitation Wind Pressure Humidity
    00:00 +6°C° 0 mm 2 mps 769 mmHg 79%
    01:00 +5°C° 0 mm 3 mps 769 mmHg 80%
    02:00 +5°C° 0 mm 3 mps 769 mmHg 81%
    03:00 +4°C° 0 mm 3 mps 768 mmHg 83%
    04:00 +4°C° 0 mm 3 mps 768 mmHg 84%
    05:00 +4°C° 0 mm 3 mps 768 mmHg 85%
    06:00 +4°C° 0 mm 3 mps 768 mmHg 84%
    07:00 +4°C° 0 mm 4 mps 768 mmHg 82%
    08:00 +5°C° 0 mm 4 mps 769 mmHg 81%
    09:00 +6°C° 0 mm 4 mps 768 mmHg 77%
    10:00 +7°C° 0 mm 4 mps 768 mmHg 72%
    11:00 +8°C° 0 mm 4 mps 768 mmHg 68%
    12:00 +8°C° 0 mm 5 mps 768 mmHg 70%
    13:00 +8°C° 0 mm 5 mps 768 mmHg 73%
    14:00 +8°C° 0 mm 6 mps 768 mmHg 75%
    15:00 +8°C° 0 mm 6 mps 768 mmHg 77%
    16:00 +7°C° 0 mm 6 mps 768 mmHg 78%
    17:00 +6°C° 0 mm 7 mps 768 mmHg 79%
    18:00 +6°C° 0 mm 7 mps 768 mmHg 78%
    19:00 +6°C° 0 mm 7 mps 768 mmHg 76%
    20:00 +8°C° 0 mm 7 mps 768 mmHg 75%
    21:00 +7°C° 0 mm 8 mps 768 mmHg 73%
    22:00 +7°C° 0 mm 9 mps 769 mmHg 71%
    23:00 +7°C° 0 mm 10 mps 769 mmHg 69%

    21 November, Thursday

    Time Temperature Precipitation Wind Pressure Humidity
    00:00 +7°C° 0 mm 10 mps 769 mmHg 70%
    01:00 +6°C° 0 mm 11 mps 769 mmHg 72%
    02:00 +6°C° 0 mm 11 mps 769 mmHg 74%
    03:00 +6°C° 0 mm 11 mps 769 mmHg 74%
    04:00 +4°C° 0 mm 11 mps 769 mmHg 74%
    05:00 +4°C° 0 mm 12 mps 770 mmHg 74%
    06:00 +4°C° 0 mm 12 mps 770 mmHg 74%
    07:00 +3°C° 0 mm 12 mps 770 mmHg 74%
    08:00 +3°C° 0 mm 12 mps 771 mmHg 74%
    09:00 +2°C° 0 mm 12 mps 771 mmHg 74%
    10:00 +2°C° 0 mm 12 mps 771 mmHg 73%
    11:00 +2°C° 0 mm 12 mps 771 mmHg 73%
    12:00 0°C° 0 mm 13 mps 771 mmHg 73%
    13:00 0°C° 0 mm 13 mps 771 mmHg 73%
    14:00 0°C° 0 mm 13 mps 771 mmHg 73%
    15:00 0°C° 0 mm 13 mps 771 mmHg 72%
    16:00 0°C° 0 mm 13 mps 771 mmHg 71%
    17:00 -1°C° 0 mm 13 mps 771 mmHg 70%
    18:00 -1°C° 0 mm 13 mps 772 mmHg 70%
    19:00 -1°C° 0 mm 12 mps 772 mmHg 71%
    20:00 -1°C° 0 mm 12 mps 772 mmHg 71%
    21:00 -1°C° 0 mm 12 mps 772 mmHg 72%
    22:00 -1°C° 0 mm 12 mps 772 mmHg 73%
    23:00 -1°C° 0 mm 12 mps 772 mmHg 74%

    22 November, Friday

    Time Temperature Precipitation Wind Pressure Humidity
    00:00 -1°C° 0 mm 12 mps 772 mmHg 74%
    01:00 -2°C° 0 mm 12 mps 772 mmHg 74%
    02:00 -2°C° 0 mm 13 mps 772 mmHg 74%
    03:00 -2°C° 0 mm 13 mps 771 mmHg 74%
    04:00 -2°C° 0 mm 13 mps 771 mmHg 74%
    05:00 -2°C° 0 mm 13 mps 771 mmHg 75%
    06:00 -2°C° 0 mm 13 mps 771 mmHg 76%
    07:00 -2°C° 0 mm 13 mps 771 mmHg 76%
    08:00 -1°C° 0 mm 12 mps 771 mmHg 77%
    09:00 -1°C° 0.1 mm 12 mps 771 mmHg 78%
    10:00 -1°C° 0.1 mm 12 mps 771 mmHg 78%
    11:00 0°C° 0.1 mm 12 mps 771 mmHg 78%
    12:00 0°C° 0 mm 12 mps 770 mmHg 79%
    13:00 0°C° 0 mm 12 mps 770 mmHg 79%
    14:00 0°C° 0 mm 12 mps 769 mmHg 79%
    15:00 +2°C° 0 mm 11 mps 769 mmHg 78%
    16:00 +2°C° 0 mm 11 mps 769 mmHg 76%
    17:00 +2°C° 0 mm 11 mps 769 mmHg 75%
    18:00 +3°C° 0 mm 11 mps 769 mmHg 74%
    19:00 +3°C° 0 mm 11 mps 769 mmHg 73%
    20:00 +3°C° 0 mm 11 mps 769 mmHg 73%
    21:00 +3°C° 0 mm 11 mps 769 mmHg 74%
    22:00 +2°C° 0 mm 10 mps 769 mmHg 76%
    23:00 +2°C° 0 mm 10 mps 769 mmHg 78%

    23 November, Saturday

    Time Temperature Precipitation Wind Pressure Humidity
    00:00 +2°C° 0 mm 10 mps 769 mmHg 79%
    01:00 +2°C° 0 mm 10 mps 769 mmHg 79%
    02:00 +2°C° 0 mm 10 mps 769 mmHg 80%
    03:00 +2°C° 0 mm 10 mps 769 mmHg 80%
    04:00 +2°C° 0 mm 10 mps 769 mmHg 79%
    05:00 +1°C° 0 mm 10 mps 769 mmHg 79%
    06:00 +1°C° 0 mm 9 mps 769 mmHg 79%
    07:00 +1°C° 0 mm 9 mps 769 mmHg 79%
    08:00 +1°C° 0 mm 9 mps 769 mmHg 78%
    09:00 +2°C° 0 mm 9 mps 769 mmHg 77%
    10:00 +2°C° 0 mm 9 mps 769 mmHg 76%
    11:00 +2°C° 0 mm 8 mps 769 mmHg 75%
    12:00 +2°C° 0 mm 8 mps 768 mmHg 75%
    13:00 +2°C° 0 mm 8 mps 768 mmHg 75%
    14:00 +2°C° 0 mm 8 mps 768 mmHg 75%
    15:00 +2°C° 0 mm 8 mps 768 mmHg 74%
    16:00 +2°C° 0 mm 8 mps 768 mmHg 73%
    17:00 +4°C° 0 mm 7 mps 768 mmHg 73%
    18:00 +4°C° 0 mm 7 mps 768 mmHg 72%
    19:00 +4°C° 0 mm 7 mps 767 mmHg 72%
    20:00 +4°C° 0 mm 7 mps 767 mmHg 72%
    21:00 +4°C° 0 mm 7 mps 767 mmHg 73%
    22:00 +4°C° 0 mm 7 mps 767 mmHg 74%
    23:00 +4°C° 0 mm 7 mps 767 mmHg 75%
    Show more